Regional Weather Roundup
Issued by NWS Grand Forks, ND

Home | Current Version | Previous Version | Text Only | Print | Product List | Glossary Off
Versions: 1 2 3 4 5 6 7 8 9 10 11 12 13 14 15 16 17 18 19 20 21 22 23 24 25 26 27 28 29 30 31 32 33 34 35 36 37 38 39 40 41 42 43 44 45 46 47 48 49 50

000
ASUS43 KFGF 230310
RWRFGF
PRAIRIE TO PINES  WEATHER ROUNDUP
NATIONAL WEATHER SERVICE EASTERN NORTH DAKOTA/GRAND FORKS ND
1000 PM CDT TUE AUG 22 2017

 **SATELLITE DATA USED TO AUGMENT SKY COVER AT AUTOMATED STATIONS**
 *****  WEATHER ACROSS EASTERN NORTH DAKOTA  *****

CITY           SKY/WX    TMP DP  RH WIND       PRES   REMARKS
GRAND FORKS    FAIR      57  48  72 NW6       30.06S
GRAND FRKS AFB FAIR      53  46  78 CALM      30.08R
DEVILS LAKE    FAIR      57  47  69 NW5       30.10S
FARGO          FAIR      56  48  74 CALM      30.07S
WAHPETON ARPT  FAIR      54  46  76 W5        30.09R
$$

 ***** WEATHER ACROSS CENTRAL AND WESTERN NORTH DAKOTA  *****

CITY           SKY/WX    TMP DP  RH WIND       PRES   REMARKS
BISMARCK       FAIR      63  47  55 E3        30.12S
MINOT          FAIR      61  43  51 E3        30.10R
JAMESTOWN      FAIR      59  48  67 CALM      30.10F
MINOT AFB      FAIR      61  41  48 SE3       30.08S
GARRISON         N/A     59  44  57 CALM      30.11R
WILLISTON      FAIR      71  45  39 SE5       30.08S
DICKINSON      FAIR      58  43  57 E8        30.11S
HETTINGER      FAIR      62  46  55 E13       30.14R
$$

 *****  OTHER AIRPORT OBSERVATIONS IN OUR AREA  *****

CITY           SKY/WX    TMP DP  RH WIND       PRES   REMARKS
WALHALLA       FAIR      55  55 100 W5        30.09R
GRAFTON AIRPOR FAIR      59  50  72 CALM      30.09S
VALLEY CITY AR   N/A     54  48  82 NW5       30.12S
CANDO          FAIR      55  48  76 NW5       30.12S
CAVALIER APRT  FAIR      55  50  82 N3        30.08R
GWINNER        CLEAR     55  50  82 W7        30.11S
SHEYENNE NWR     N/A     58  48  68 NW2       29.95S
ROLLA          FAIR      50  46  87 W3        30.11F
 ***** THE ABOVE OBSERVATIONS ARE NON NWS ARE NOT QUALITY
       CONTROLLED AND MAY MIS-REPORT RAIN FOR SNOW...
$$

  *****  WEATHER ACROSS NORTHERN MINNESOTA  *****

CITY           SKY/WX    TMP DP  RH WIND       PRES   REMARKS
FLAG ISLAND    FAIR      61  48  63 N6        30.02F
WARROAD        FAIR      55  52  88 NW3       30.05S
ROSEAU           N/A     61  54  77 W7        30.05S
HALLOCK        FAIR      57  48  72 NW3       30.06S
THF RVR FALLS  FAIR      58  50  75 NW6       30.07S
BAUDETTE       MOCLDY    59  51  75 N6        30.03S
WASKISH        FAIR      61  54  77 NW9       30.04S
CROOKSTON      FAIR      61  46  59 N5        30.07S
STEPHEN NDAWN    N/A     55  48  76 NW3         N/A
GREENBUSH NDAW   N/A     52  48  87 W3          N/A
$$
  *****  WEATHER ACROSS CENTRAL AND WEST MINNESOTA  *****

CITY           SKY/WX    TMP DP  RH WIND       PRES   REMARKS
FOSSTON        FAIR      52  45  76 CALM      30.08R
BEMIDJI        FAIR      55  50  82 W6        30.05S
PARK RAPIDS    FAIR      55  48  77 NW7       30.06R
ELBOW LAKE     FAIR      58  51  77 NW5       30.09S
WADENA         FAIR      57  46  67 CALM      30.07S
DETROIT LAKES  FAIR      59  46  63 NW3       30.09R
MOORHEAD       FAIR      59  46  63 CALM      30.08S
FERGUS FALLS   FAIR      59  48  67 N3        30.08S
MORRIS MN      FAIR      57  52  82 W5        30.08S
STAPLES        FAIR      55  45  67 NW5       30.06S
$$
  *****  WEATHER ELSEWHERE ACROSS MINNESOTA  *****

CITY           SKY/WX    TMP DP  RH WIND       PRES   REMARKS
DULUTH         FAIR      55  52  89 NW7       29.99R
INTRNTL FALLS  MOCLDY    55  48  77 NW8       30.00R
ELY            FAIR      54  52  94 NW6       29.97R
CLOQUET        FAIR      57  48  72 W6        30.00S
WHEATON        FAIR      57  50  77 W5        30.11S
BRAINERD       FAIR      63  46  54 NW8       30.04R
HIBBING        FAIR      56  51  84 NW13      30.00S
ALEXANDRIA     FAIR      57  50  77 NW5       30.09S
SAINT CLOUD    FAIR      59  49  69 W3        30.05R
MINNEAPOLIS    FAIR      67  48  50 W10       30.04S
$$

  *****  WEATHER ACROSS SOUTH DAKOTA  *****

CITY           SKY/WX    TMP DP  RH WIND       PRES   REMARKS
SIOUX FALLS    FAIR      60  55  83 CALM      30.14R
BROOKINGS      FAIR      61  51  70 CALM      30.14R
WATERTOWN      FAIR      59  50  72 CALM      30.13R
HURON          FAIR      61  51  70 CALM      30.12S
SISSETON         N/A     56  50  80 W6        30.10R
ABERDEEN       FAIR      59  51  75 CALM      30.12R
MITCHELL       FAIR      63  52  67 E3        30.14R
PIERRE         FAIR      66  51  58 E6        30.10R
MOBRIDGE       FAIR      57  51  80 E3        30.10R
RAPID CITY     FAIR      70  46  42 E10       30.10R
$$

  *****  SOME WEATHER IN NEARBY STATES *****

CITY           SKY/WX    TMP DP  RH WIND       PRES   REMARKS
GLASGOW MT     FAIR      72  34  24 E12       30.02S
GREAT FALLS MT FAIR      74  31  20 E6        30.03S
CHEYENNE WY    FAIR      68  53  58 S12       30.25S
SCOTTSBLUFF NE FAIR      69  53  56 E12       30.15R
OMAHA NE       FAIR      64  56  75 CALM      30.15R
DES MOINES IA  FAIR      67  51  56 CALM      30.10R
DAVENPORT IA   FAIR      59  54  83 W5        30.08R
CHICAGO IL     FAIR      68  50  52 NW8       29.99R
EAU CLAIRE WI  FAIR      58  50  75 W6        29.99S
LA CROSSE WI   NOT AVBL
$$

  *****  SOME NATIONAL WEATHER *****

CITY           SKY/WX    TMP DP  RH WIND       PRES   REMARKS
LA GUARDIA NY  CLOUDY    83  73  72 SW23G32   29.78R THUNDER
RALEIGH NC     FAIR      83  71  67 SW15G22   29.96R
ATLANTA GA     FAIR      80  73  79 SW7       30.02S
NEW ORLEANS LA FAIR      79  77  94 SW3       29.99F
OKLAHOMA CITY  RAIN      71  69  93 NW7       30.09F
ALBUQUERQUE NM FAIR      73  56  54 E25G38    30.25R
SALT LAKE CITY MOCLDY    79  48  33 SE8       30.14S
LOS ANGELES CA FAIR      69  64  84 SW10      29.95R
BOISE ID       FAIR      82  50  32 S3        29.97R
SEATTLE WA     FAIR      77  56  48 W5        29.98R
$$

*** WEATHER ACROSS MANITOBA...SASKATCHEWAN AND ONTARIO ***
                ***ONTARIO***

CITY           SKY/WX    TMP DP  RH WIND       PRES   REMARKS
GERALDTON      MOCLDY    52  50  93 NW13G29   29.77R
THUNDER BAY    MOCLDY    55  50  82 W8        29.87R
SIOUX LOOKOUT  CLOUDY    54  52  94 N7        29.96R
TORONTO        CLEAR     63  54  72 W14       29.77R
BIG TROUT LK   CLEAR     46  36  66 N6        29.97R
PICKLE LAKE    NOT AVBL
DRYDEN         MOCLDY    54  52  94 NW7       29.99R
KENORA         MOCLDY    57  50  77 N7        30.03S
$$
                *** MANITOBA***

CITY           SKY/WX    TMP DP  RH WIND       PRES   REMARKS
BRANDON        MOCLDY    57  46  67 E2        30.08S
DAUPHIN        CLOUDY    57  52  82 S5        30.05F
ISLAND LAKE    PTCLDY    52  45  76 N6        30.08R
PILOT MOUND      N/A     57  43  58 NE5         N/A
THE PAS        CLOUDY    63  54  72 SE7       30.02S
THOMPSON       PTCLDY    41  39  93 VRB2      30.09R
WINNIPEG       PTCLDY    52  50  93 W3        30.07S
LYNN LAKE      PTCLDY    54  46  76 E3        30.06S
CHURCHILL      CLEAR     48  39  71 W7        30.08F
GILLAM         PTCLDY    54  41  62 NE6       30.08S
$$
                ***SASKATCHEWAN***

CITY           SKY/WX    TMP DP  RH WIND       PRES   REMARKS
ESTEVAN        PTCLDY    61  43  51 E9        30.07S
KINDERSLEY     PTCLDY    66  50  55 NE8       29.99S
LLOYDMINSTER   MOCLDY    63  57  82 N3        30.01R
PRINCE ALBERT  MOCLDY    59  54  82 E5        30.01S
REGINA         MOCLDY    70  41  35 SE8       30.02R
YORKTON        CLOUDY    63  50  63 SE5       30.05S
N. BATTLEFORD  CLEAR     64  54  68 NE7       30.01S
LA RONGE       PTCLDY    61  50  67 SW6       30.01R
SASKATOON      PTCLDY    64  52  63 NE2       30.00F
SWIFT CURRENT  CLEAR     66  43  42 E9        30.02S
$$
NOTE: THESE ARE AUTOMATED STATIONS WITH LIMITED QUALITY CONTROL
      "FAIR" INDICATES FEW OR NO CLOUDS BELOW 12,000 FEET WITH NO
      SIGNIFICANT WEATHER AND/OR OBSTRUCTIONS TO VISIBILITY.
      SKY/WX - SKY CONDITION AND SIGNIFICANT WEATHER.
      TMP - AIR TEMPERATURE.    DP   - DEWPOINT TEMPERATURE.
      RH  - RELATIVE HUMIDITY.  PRES - PRESSURE.
      HX  - HEAT INDEX.         WCI  - WIND CHILL INDEX.
$




USA.gov is the U.S. government's official web portal to all federal, state and local government web resources and services.